Location: Narrabri
(30.3170°S, 149.7830°E)
Time: 16:59:04
(UTC+10:00)

ISS - Visible Passes

Search period start: 25 June 2017 00:00
Search period end: 05 July 2017 00:00
Orbit: 401 x 408 km, 51.6° (Epoch: 25 June)

Date Brightness Start Highest point End Pass type
(mag) Time Alt. Az. Time Alt. Az. Time Alt. Az.
25 Jun -2.0 18:49:09 10° NNW 18:50:47 23° N 18:50:47 23° N visible
26 Jun -1.7 17:58:11 10° NNE 18:00:05 15° NE 18:01:14 13° ENE visible
26 Jun -0.6 19:33:17 10° WNW 19:33:55 14° WNW 19:33:55 14° WNW visible
27 Jun -3.8 18:40:46 10° NW 18:44:04 76° SW 18:44:17 71° S visible
28 Jun -3.2 17:48:45 10° NNW 17:51:55 43° NE 17:54:35 14° ESE visible
28 Jun -0.6 19:26:37 10° WSW 19:27:16 12° WSW 19:27:16 12° WSW visible
29 Jun -2.0 18:33:17 10° W 18:36:09 26° SW 18:37:28 20° S visible
30 Jun -3.2 17:40:34 10° WNW 17:43:49 55° SW 17:47:07 10° SE visible
01 Jul -1.1 18:26:59 10° WSW 18:28:21 12° SSW 18:29:43 10° S visible
02 Jul -1.7 17:33:16 10° W 17:35:52 21° SW 17:38:29 10° SSE visible
